FENGYUN 1C DEB, 30749

Orbit data source: Space-Track

FENGYUN 1C DEB, 30749 is space debris in SSO originally from a launch on Mon, 10 May 1999 UTC launched from the Taiyaun Space Center, China (TSC). Fengyun 1C debris stems from the Chinese weather satellite Fengyun-1C, which was intentionally destroyed by a Chinese anti-satellite missile in 2007. This event dramatically increased the amount of space debris, with thousands of trackable fragments posing hazards to satellites and human spaceflight. The Fengyun 1C debris cloud has become a focal point in discussions about space sustainability and the need for international regulations to prevent the creation of new debris.

Loading next visibility...
Identifier
30749, 1999-025ATK
Orbit
SSO
Country
Flag of CNCN / PRC
Related business
Manufacturer
Unknown
Mission
Spacecraft
Bus & Motor
Unknown
Mass
Unknown
Launch date (UTC)
1999-05-10 (27 years ago)
Launch vehicle
Unknown
Launch site
Taiyaun Space Center, China (TSC)
Object type
Payload
Rocket body
Debris
Shape & HBR
Unknown shape, 0.1 m
Radar Cross Section
Medium (>0.1 m² and <1 m²)

Expand to show TLE details & history
Last TLE update: 14 hours ago

TLE from 14 hours ago
0 FENGYUN 1C DEB
1 30749U 99025ATK 26166.36021375  .00000467  00000-0  34126-3 0  9992
2 30749  98.8639 192.6242 0060824  78.6859 282.1132 13.99883387985490
Epoch: 2026-06-15T08:38Z
TLE epoch observation values (Epoch: 2026-06-15T08:38:42.468Z)
Latitude
-0.00002°
Longitude
159.29953°
Altitude
888.055 km
Speed
7.413 km/s
True Right ascension
12h 50m 29s
True Declination
0° 00' 00"
Sunlit
Object was in daylight at epoch
Visualization orbit readout
Latitude
Unknown
Longitude
Unknown
Altitude
Unknown
Speed
Unknown
Apparent Right ascension
Unknown
Apparent Declination
Unknown
Sunlit
N/A
Visualization observer readout
Local Sidereal Time
09:13:33
Azimuth
Unknown
Elevation
Unknown
Doppler factor
Unknown
Orbital elements
Apogee altitude
935.608 km
Perigee altitude
847.176 km
Semi-major axis
7,269.529 km
Eccentricity
0.00608
Inclination
98.8639°
RAAN
192.6242°
Arg. of periapsis
78.6859°
True anomaly
281.43065°
Mean anomaly
282.1132°
Eccentric anomaly
281.77203°
Mean motion
3.50174 °/min
Orbital period
102.81 mins
BSTAR
0.00034126
Loading maneuver chart data...
Computing Atmospheric mass density...

Documentation

Showing up to 5 results
|